| time (UTC) | temp F | wind direction | speed MPH | gust MPH | rain 1hr in | rain 24hr in | rain mn in | humidity % | barometer mb |
| 20260906044136 | 75 | 248 | 0.0 | 0.0 | 0.00 | 0.00 | 0.00 | 99 | 1016.7 |
| 20260906043133 | 75 | 248 | 0.0 | 0.0 | 0.00 | 0.00 | 0.00 | 99 | 1016.7 |
| 20260906042133 | 75 | 238 | 0.0 | 0.0 | 0.00 | 0.00 | 0.00 | 99 | 1016.7 |
| 20260906041129 | 75 | 240 | 0.0 | 0.0 | 0.00 | 0.00 | 0.00 | 98 | 1016.6 |
| 20260906040126 | 76 | 253 | 0.0 | 0.0 | 0.00 | 0.00 | 0.00 | 97 | 1016.4 |
| 20260906035123 | 76 | 253 | 0.0 | 0.0 | 0.00 | 0.00 | 0.00 | 97 | 1016.4 |
| 20260906034124 | 76 | 272 | 2.0 | 2.0 | 0.00 | 0.00 | 0.00 | 97 | 1016.2 |
| 20260906033120 | 76 | 267 | 1.0 | 1.0 | 0.00 | 0.00 | 0.00 | 97 | 1016.3 |
| 20260906032116 | 76 | 249 | 0.0 | 0.0 | 0.00 | 0.00 | 0.00 | 97 | 1016.2 |
| 20260906031113 | 76 | 244 | 0.0 | 0.0 | 0.00 | 0.00 | 0.00 | 96 | 1016.4 |
| 20260906030113 | 77 | 261 | 1.0 | 1.0 | 0.00 | 0.00 | 0.00 | 96 | 1016.3 |
| 20260906025111 | 77 | 208 | 0.0 | 0.0 | 0.00 | 0.00 | 0.00 | 96 | 1016.3 |
| 20260906024107 | 77 | 208 | 0.0 | 0.0 | 0.00 | 0.00 | 0.00 | 96 | 1015.8 |
| 20260906023103 | 78 | 208 | 0.0 | 0.0 | 0.00 | 0.00 | 0.00 | 95 | 1015.7 |
| 20260906022100 | 78 | 208 | 0.0 | 0.0 | 0.00 | 0.00 | 0.00 | 95 | 1015.7 |
| 20260906021054 | 78 | 208 | 0.0 | 0.0 | 0.00 | 0.00 | 0.00 | 94 | 1015.4 |
| 20260906020054 | 78 | 208 | 0.0 | 0.0 | 0.00 | 0.00 | 0.00 | 94 | 1015.1 |
| 20260906015053 | 78 | 208 | 0.0 | 0.0 | 0.00 | 0.00 | 0.00 | 93 | 1015.3 |
| 20260906014050 | 79 | 208 | 0.0 | 0.0 | 0.00 | 0.00 | 0.00 | 93 | 1015.0 |
| 20260906013046 | 80 | 208 | 0.0 | 0.0 | 0.00 | 0.00 | 0.00 | 92 | 1015.3 |
| 20260906012046 | 80 | 208 | 0.0 | 1.0 | 0.00 | 0.00 | 0.00 | 91 | 1015.1 |
| 20260906011042 | 81 | 208 | 0.0 | 0.0 | 0.00 | 0.00 | 0.00 | 89 | 1015.1 |
| 20260906010040 | 82 | 208 | 0.0 | 1.0 | 0.00 | 0.00 | 0.00 | 88 | 1015.0 |
| 20260906005038 | 82 | 208 | 0.0 | 0.0 | 0.00 | 0.00 | 0.00 | 86 | 1015.0 |
| 20260906004039 | 83 | 208 | 0.0 | 0.0 | 0.00 | 0.00 | 0.00 | 85 | 1015.1 |
| 20260906003036 | 84 | 208 | 0.0 | 0.0 | 0.00 | 0.00 | 0.00 | 83 | 1014.8 |
| 20260906002031 | 85 | 208 | 0.0 | 0.0 | 0.00 | 0.00 | 0.00 | 80 | 1014.8 |
| 20260906001027 | 87 | 208 | 0.0 | 0.0 | 0.00 | 0.00 | 0.00 | 75 | 1014.7 |
| 20260906000024 | 89 | 208 | 0.0 | 0.0 | 0.00 | 0.00 | 0.00 | 72 | 1014.8 |
| 20260905235019 | 92 | 208 | 0.0 | 0.0 | 0.00 | 0.00 | 0.00 | 68 | 1014.9 |
| 20260905234014 | 92 | 209 | 0.0 | 0.0 | 0.00 | 0.00 | 0.00 | 61 | 1015.0 |
| 20260905233015 | 93 | 209 | 1.0 | 1.0 | 0.00 | 0.00 | 0.00 | 61 | 1014.8 |
| 20260905232012 | 93 | 209 | 1.0 | 1.0 | 0.00 | 0.00 | 0.00 | 60 | 1015.1 |
| 20260905231009 | 93 | 209 | 1.0 | 1.0 | 0.00 | 0.00 | 0.00 | 59 | 1014.8 |
| 20260905230006 | 94 | 211 | 3.0 | 3.0 | 0.00 | 0.00 | 0.00 | 58 | 1014.7 |
| 20260905225002 | 95 | 215 | 1.0 | 1.0 | 0.00 | 0.00 | 0.00 | 55 | 1014.8 |
| 20260905224002 | 95 | 213 | 1.0 | 2.0 | 0.00 | 0.00 | 0.00 | 54 | 1014.6 |
| 20260905223001 | 96 | 212 | 3.0 | 3.0 | 0.00 | 0.00 | 0.00 | 54 | 1014.9 |
| 20260905221956 | 95 | 215 | 3.0 | 5.0 | 0.00 | 0.00 | 0.00 | 55 | 1015.0 |
| 20260905220955 | 95 | 205 | 2.0 | 2.0 | 0.00 | 0.00 | 0.00 | 55 | 1015.1 |
| 20260905215949 | 95 | 215 | 5.0 | 6.0 | 0.00 | 0.00 | 0.00 | 56 | 1014.9 |
| 20260905214948 | 95 | 218 | 2.0 | 2.0 | 0.00 | 0.00 | 0.00 | 55 | 1014.9 |
| 20260905213943 | 95 | 241 | 2.0 | 2.0 | 0.00 | 0.00 | 0.00 | 56 | 1014.9 |
| 20260905212940 | 96 | 218 | 2.0 | 2.0 | 0.00 | 0.00 | 0.00 | 53 | 1015.0 |
| 20260905211940 | 95 | 247 | 1.0 | 1.0 | 0.00 | 0.00 | 0.00 | 54 | 1015.2 |
| 20260905210938 | 97 | 242 | 3.0 | 3.0 | 0.00 | 0.00 | 0.00 | 54 | 1015.0 |
| 20260905205938 | 97 | 196 | 4.0 | 6.0 | 0.00 | 0.00 | 0.00 | 53 | 1015.2 |
| 20260905204937 | 96 | 202 | 1.0 | 1.0 | 0.00 | 0.00 | 0.00 | 53 | 1015.4 |
| 20260905203932 | 96 | 230 | 2.0 | 3.0 | 0.00 | 0.00 | 0.00 | 55 | 1015.4 |
| 20260905202929 | 95 | 160 | 7.0 | 7.0 | 0.00 | 0.00 | 0.00 | 57 | 1015.5 |
| 20260905201926 | 96 | 152 | 7.0 | 10.0 | 0.00 | 0.00 | 0.00 | 55 | 1015.5 |
| 20260905200921 | 95 | 243 | 1.0 | 1.0 | 0.00 | 0.00 | 0.00 | 56 | 1016.0 |
| 20260905195921 | 95 | 250 | 1.0 | 1.0 | 0.00 | 0.00 | 0.00 | 58 | 1016.1 |
| 20260905194918 | 95 | 252 | 2.0 | 2.0 | 0.00 | 0.00 | 0.00 | 59 | 1016.3 |
| 20260905193917 | 95 | 234 | 2.0 | 3.0 | 0.00 | 0.00 | 0.00 | 57 | 1016.4 |
| 20260905192913 | 95 | 247 | 1.0 | 1.0 | 0.00 | 0.00 | 0.00 | 58 | 1016.8 |
| 20260905191908 | 93 | 238 | 5.0 | 7.0 | 0.00 | 0.00 | 0.00 | 60 | 1016.9 |
| 20260905190908 | 94 | 241 | 5.0 | 7.0 | 0.00 | 0.00 | 0.00 | 60 | 1017.2 |
| 20260905185904 | 95 | 237 | 2.0 | 3.0 | 0.00 | 0.00 | 0.00 | 60 | 1017.2 |
| 20260905184904 | 95 | 246 | 2.0 | 2.0 | 0.00 | 0.00 | 0.00 | 60 | 1017.2 |
| 20260905183903 | 95 | 240 | 2.0 | 3.0 | 0.00 | 0.00 | 0.00 | 60 | 1017.1 |
| 20260905182859 | 95 | 253 | 0.0 | 1.0 | 0.00 | 0.00 | 0.00 | 61 | 1017.7 |
| 20260905181854 | 94 | 257 | 1.0 | 2.0 | 0.00 | 0.00 | 0.00 | 61 | 1017.6 |
| 20260905180853 | 93 | 242 | 0.0 | 1.0 | 0.00 | 0.00 | 0.00 | 60 | 1017.4 |
| 20260905175849 | 94 | 241 | 4.0 | 6.0 | 0.00 | 0.00 | 0.00 | 61 | 1017.7 |
| 20260905174850 | 95 | 241 | 3.0 | 5.0 | 0.00 | 0.00 | 0.00 | 58 | 1017.7 |
| 20260905173847 | 93 | 243 | 3.0 | 3.0 | 0.00 | 0.00 | 0.00 | 61 | 1017.6 |
| 20260905172843 | 94 | 273 | 3.0 | 3.0 | 0.00 | 0.00 | 0.00 | 59 | 1017.8 |
| 20260905171843 | 93 | 241 | 4.0 | 5.0 | 0.00 | 0.00 | 0.00 | 63 | 1017.9 |
| 20260905170842 | 93 | 240 | 5.0 | 5.0 | 0.00 | 0.00 | 0.00 | 62 | 1017.8 |
| 20260905165837 | 93 | 223 | 0.0 | 0.0 | 0.00 | 0.00 | 0.00 | 65 | 1017.8 |
| 20260905164832 | 91 | 232 | 6.0 | 7.0 | 0.00 | 0.00 | 0.00 | 65 | 1018.2 |
| 20260905163828 | 91 | 197 | 1.0 | 1.0 | 0.00 | 0.00 | 0.00 | 64 | 1018.2 |
| 20260905162826 | 91 | 187 | 7.0 | 7.0 | 0.00 | 0.00 | 0.00 | 67 | 1018.5 |
| 20260905161826 | 90 | 216 | 1.0 | 1.0 | 0.00 | 0.00 | 0.00 | 67 | 1018.4 |
| 20260905160824 | 90 | 244 | 1.0 | 1.0 | 0.00 | 0.00 | 0.00 | 66 | 1018.6 |
| 20260905155819 | 91 | 202 | 7.0 | 9.0 | 0.00 | 0.00 | 0.00 | 66 | 1018.9 |
| 20260905154819 | 90 | 258 | 1.0 | 2.0 | 0.00 | 0.00 | 0.00 | 67 | 1019.0 |
| 20260905153815 | 89 | 263 | 0.0 | 0.0 | 0.00 | 0.00 | 0.00 | 71 | 1018.8 |
| 20260905152811 | 89 | 263 | 0.0 | 0.0 | 0.00 | 0.00 | 0.00 | 71 | 1018.8 |
| 20260905151812 | 89 | 295 | 3.0 | 3.0 | 0.00 | 0.00 | 0.00 | 71 | 1018.8 |
| 20260905150807 | 88 | 255 | 1.0 | 1.0 | 0.00 | 0.00 | 0.00 | 72 | 1018.9 |
| 20260905145804 | 88 | 246 | 0.0 | 0.0 | 0.00 | 0.00 | 0.00 | 70 | 1018.9 |
| 20260905144803 | 86 | 246 | 0.0 | 0.0 | 0.00 | 0.00 | 0.00 | 76 | 1019.3 |
| 20260905143803 | 86 | 246 | 0.0 | 0.0 | 0.00 | 0.00 | 0.00 | 76 | 1019.0 |
| 20260905142803 | 83 | 246 | 0.0 | 0.0 | 0.00 | 0.00 | 0.00 | 79 | 1019.1 |
| 20260905141759 | 82 | 245 | 0.0 | 1.0 | 0.00 | 0.00 | 0.00 | 83 | 1019.3 |
| 20260905140756 | 82 | 253 | 0.0 | 0.0 | 0.00 | 0.00 | 0.00 | 87 | 1019.0 |
| 20260905135755 | 78 | 253 | 0.0 | 0.0 | 0.00 | 0.00 | 0.00 | 92 | 1018.9 |
| 20260905134751 | 76 | 252 | 0.0 | 0.0 | 0.00 | 0.00 | 0.00 | 96 | 1018.9 |
| 20260905133751 | 76 | 252 | 0.0 | 0.0 | 0.00 | 0.00 | 0.00 | 98 | 1019.0 |
| 20260905132745 | 75 | 258 | 0.0 | 0.0 | 0.00 | 0.00 | 0.00 | 99 | 1019.0 |
| 20260905131741 | 75 | 252 | 0.0 | 0.0 | 0.00 | 0.00 | 0.00 | 99 | 1018.9 |
| 20260905130737 | 74 | 252 | 0.0 | 0.0 | 0.00 | 0.00 | 0.00 | 99 | 1018.7 |
| 20260905125732 | 73 | 252 | 0.0 | 0.0 | 0.00 | 0.00 | 0.00 | 99 | 1018.8 |
| 20260905124729 | 73 | 252 | 0.0 | 0.0 | 0.00 | 0.00 | 0.00 | 99 | 1018.9 |
| 20260905123725 | 72 | 252 | 0.0 | 0.0 | 0.00 | 0.00 | 0.00 | 99 | 1019.0 |
| 20260905122722 | 72 | 252 | 0.0 | 0.0 | 0.00 | 0.00 | 0.00 | 99 | 1018.7 |
| 20260905121717 | 72 | 252 | 0.0 | 0.0 | 0.00 | 0.00 | 0.00 | 99 | 1018.9 |
| 20260905120713 | 71 | 252 | 0.0 | 0.0 | 0.00 | 0.00 | 0.00 | 99 | 1018.6 |
| 20260905115707 | 71 | 253 | 0.0 | 0.0 | 0.00 | 0.00 | 0.00 | 99 | 1018.7 |
| 20260905114702 | 71 | 253 | 0.0 | 0.0 | 0.00 | 0.00 | 0.00 | 99 | 1018.7 |
| 20260905113700 | 71 | 253 | 0.0 | 0.0 | 0.00 | 0.00 | 0.00 | 99 | 1018.5 |
| 20260905112656 | 71 | 253 | 0.0 | 0.0 | 0.00 | 0.00 | 0.00 | 99 | 1018.3 |
| 20260905111651 | 71 | 253 | 0.0 | 0.0 | 0.00 | 0.00 | 0.00 | 99 | 1018.1 |
| 20260905110650 | 70 | 253 | 0.0 | 0.0 | 0.00 | 0.00 | 0.00 | 99 | 1017.8 |
| 20260905105646 | 70 | 253 | 0.0 | 0.0 | 0.00 | 0.00 | 0.00 | 99 | 1017.5 |
| 20260905104646 | 71 | 254 | 0.0 | 0.0 | 0.00 | 0.00 | 0.00 | 99 | 1017.7 |
| 20260905103643 | 71 | 255 | 0.0 | 0.0 | 0.00 | 0.00 | 0.00 | 99 | 1017.5 |
| 20260905102640 | 71 | 255 | 0.0 | 0.0 | 0.00 | 0.00 | 0.00 | 99 | 1017.4 |
| 20260905101641 | 71 | 254 | 0.0 | 0.0 | 0.00 | 0.00 | 0.00 | 99 | 1017.6 |
| 20260905100636 | 71 | 254 | 0.0 | 0.0 | 0.00 | 0.00 | 0.00 | 99 | 1017.5 |
| 20260905095630 | 71 | 254 | 0.0 | 0.0 | 0.00 | 0.00 | 0.00 | 99 | 1017.8 |
| 20260905094627 | 71 | 254 | 0.0 | 0.0 | 0.00 | 0.00 | 0.00 | 99 | 1017.6 |
| 20260905093626 | 71 | 257 | 0.0 | 0.0 | 0.00 | 0.00 | 0.00 | 99 | 1017.6 |
| 20260905092622 | 71 | 254 | 0.0 | 0.0 | 0.00 | 0.00 | 0.00 | 99 | 1017.4 |
| 20260905091617 | 71 | 252 | 0.0 | 0.0 | 0.00 | 0.00 | 0.00 | 99 | 1017.6 |
| 20260905090612 | 71 | 252 | 0.0 | 0.0 | 0.00 | 0.00 | 0.00 | 99 | 1017.3 |
| 20260905085612 | 71 | 252 | 0.0 | 0.0 | 0.00 | 0.00 | 0.00 | 99 | 1017.5 |
| 20260905084607 | 71 | 251 | 0.0 | 0.0 | 0.00 | 0.00 | 0.00 | 99 | 1017.5 |
| 20260905083602 | 71 | 254 | 0.0 | 0.0 | 0.00 | 0.00 | 0.00 | 99 | 1017.2 |
| 20260905082600 | 71 | 224 | 0.0 | 0.0 | 0.00 | 0.00 | 0.00 | 99 | 1017.2 |
| 20260905081555 | 71 | 224 | 0.0 | 0.0 | 0.00 | 0.00 | 0.00 | 99 | 1017.5 |
| 20260905080556 | 71 | 224 | 0.0 | 0.0 | 0.00 | 0.00 | 0.00 | 99 | 1017.4 |
| 20260905075550 | 71 | 224 | 0.0 | 0.0 | 0.00 | 0.00 | 0.00 | 99 | 1017.1 |
| 20260905074549 | 71 | 259 | 0.0 | 0.0 | 0.00 | 0.00 | 0.00 | 99 | 1017.2 |
| 20260905073547 | 71 | 259 | 0.0 | 0.0 | 0.00 | 0.00 | 0.00 | 99 | 1017.2 |
| 20260905072547 | 71 | 259 | 0.0 | 0.0 | 0.00 | 0.00 | 0.00 | 99 | 1017.3 |
| 20260905071545 | 71 | 259 | 0.0 | 0.0 | 0.00 | 0.00 | 0.00 | 99 | 1017.5 |
| 20260905070541 | 71 | 259 | 0.0 | 0.0 | 0.00 | 0.00 | 0.00 | 99 | 1017.5 |
| 20260905065540 | 72 | 259 | 0.0 | 0.0 | 0.00 | 0.00 | 0.00 | 99 | 1017.6 |
| 20260905064535 | 72 | 259 | 0.0 | 0.0 | 0.00 | 0.00 | 0.00 | 99 | 1017.5 |
| 20260905063535 | 72 | 259 | 0.0 | 0.0 | 0.00 | 0.00 | 0.00 | 99 | 1017.5 |
| 20260905062532 | 72 | 260 | 0.0 | 0.0 | 0.00 | 0.00 | 0.00 | 99 | 1017.6 |
| 20260905061528 | 72 | 260 | 0.0 | 0.0 | 0.00 | 0.00 | 0.00 | 99 | 1018.0 |
| 20260905060523 | 72 | 259 | 0.0 | 0.0 | 0.00 | 0.00 | 0.00 | 99 | 1018.0 |
| 20260905055523 | 72 | 259 | 0.0 | 0.0 | 0.00 | 0.00 | 0.00 | 99 | 1018.1 |
| 20260905054520 | 72 | 259 | 0.0 | 0.0 | 0.00 | 0.00 | 0.00 | 99 | 1018.3 |
| 20260905053515 | 73 | 259 | 0.0 | 0.0 | 0.00 | 0.00 | 0.00 | 99 | 1018.0 |
| 20260905052510 | 73 | 259 | 0.0 | 0.0 | 0.00 | 0.00 | 0.00 | 99 | 1018.2 |
| 20260905051505 | 73 | 258 | 0.0 | 0.0 | 0.00 | 0.00 | 0.00 | 99 | 1018.2 |
| 20260905050504 | 73 | 258 | 0.0 | 0.0 | 0.00 | 0.00 | 0.00 | 99 | 1018.0 |
| 20260905045501 | 73 | 258 | 0.0 | 0.0 | 0.00 | 0.00 | 0.00 | 99 | 1018.1 |